Weather in Bari

Italy     41°07′33″N   16°52′07″E
temp.,
°C
wind,
m/s
gust,
m/s
humid.,
%
clouds,
%
prec.,
mm/h
press.,
hPa
HPBL,
m
3 august, tue
tue323:00+27ese45682 0.0 1014299
02:00+27nne22701 0.0 1014202
05:00+26nw56705 0.0 1014495
08:00+26nw556997 0.0 1015516
11:00+28wnw594694 0.0 1017677
14:00+31ssw4645100 0.0 1013499
17:00+30ne2656100 0.0 1012335
20:00+30ene456098 0.0 101284
4 august, wed
wed423:00+31sw344441 0.0 101386
02:00+28wnw45554 0.0 1013110
05:00+27wnw3455100 0.0 1013107
08:00+27wnw22555 0.0 1014175
11:00+29ene23485 0.0 1013315
14:00+31ene7115677 0.0 1010889
17:00+31ene585856 0.0 1009761
20:00+33ssw244764 0.0 1008288
5 august, thu
thu523:00+33wsw563784 0.0 100990
02:00+31ssw124581 0.0 100828
05:00+31w1345100 0.0 1007180
08:00+29nnw335954 0.0 100989
11:00+29n3449100 0.0 1009464
14:00+30nne576099 0.0 1007763
17:00+29ne556599 0.0 1007266
20:00+28ene336699 0.0 1007172
6 august, fri
fri623:00+29wsw81243100 0.0 1007695
02:00+27wnw101247100 0.0 10071034
05:00+26wnw11115480 0.0 1007779
08:00+25wnw996012 0.0 1008729
11:00+26nw66560 0.0 1009766
14:00+26nne66620 0.0 1009536
17:00+27nne66580 0.0 1009588
20:00+27n34550 0.0 1009556
7 august, sat
sat723:00+27nw23520 0.0 1010437
02:00+27nne01510 0.0 1010169
05:00+26nw33560 0.0 1010293
08:00+26nw33582 0.0 1011421
11:00+27ne22575 0.0 1012405
14:00+28ene43565 0.0 1011358
17:00+28e55570 0.0 1010312
20:00+29ese56540 0.0 1010193